[[{"header":{"parameterUnit":"m.s-1","parameterCategory":1,"la1":30.2991,"la2":30.254,"lo1":-89.0895,"lo2":-89.0444,"dy":0.0017,"dx":0.0017,"nx":28,"ny":28,"refTime":"2023-07-26T03:00:00:Z","depth":0,"parameterNumber":2,"parameterNumberName":"U-component_of_WINDS"},"data":[0,0,0,0,0,0,0,0,0,0,0,0,0,0,0,0,0,0,0,0,0,0,0,0,0,0,0,0,0,0,0,0,0,0,0,0,0,0,0,0,0,0,0,0,0,0,0,0,0,0,0,0,0,0,0,0,0,0,0.9012,0.9013,0,0.9116,0.9117,0.9118,0.915,0.9149,0.9149,0.9148,0.9254,0.9257,0.9261,0,0,0,0,0,0,0,0,0,0,0,0,0,0.8838,0.8841,0.9012,0.9013,0.9014,0.9116,0.9117,0.9118,0.915,0.9149,0.9149,0.9148,0.9253,0.9257,0.9261,0,0,0,0,0,0,0,0,0,0,0,0,0,0.8925,0.8842,0.9011,0.9042,0.9046,0.9115,0.9117,0.9119,0.915,0.9149,0.9148,0.9148,0.9252,0.9257,0.9261,0.9307,0,0,0.9277,0.9279,0,0,0,0,0,0,0,0,0.892,0.8931,0.9036,0.904,0.9045,0.9119,0.9095,0.9182,0.915,0.9111,0.9148,0.9147,0.921,0.9218,0.9239,0.9312,0.9317,0.9277,0.928,0.9282,0.9283,0,0,0,0,0,0,0,0.8914,0.8927,0.9053,0.9038,0.9043,0.905,0.9062,0.9111,0.9163,0.9114,0.9116,0.9128,0.9212,0.9234,0.9242,0.9318,0.9277,0.9281,0.9284,0.9286,0.9433,0.9434,0,0,0,0,0,0,0.8903,0.8922,0.905,0.9056,0.8979,0.9054,0.9067,0.9096,0.9163,0.9172,0.9129,0.9129,0.9226,0.9236,0.9246,0.9303,0.9282,0.9287,0.929,0.9432,0.9433,0.9434,0,0,0,0,0,0,0.8899,0.8914,0.9045,0.899,0.9007,0.9058,0.909,0.9098,0.9121,0.9174,0.9183,0.9143,0.9226,0.9239,0.9292,0.9307,0.9289,0.9293,0.9431,0.9432,0.9434,0.9419,0,0,0,0,0,0,0.8894,0.8912,0.8931,0.899,0.901,0.909,0.9091,0.9101,0.913,0.9131,0.9189,0.9198,0.9227,0.9284,0.9296,0.9314,0.9297,0.943,0.9432,0.9433,0.9418,0.9419,0.9421,0,0,0,0,0,0.8888,0.8923,0.8932,0.8947,0.9034,0.9091,0.9102,0.9134,0.9131,0.9149,0.9183,0.9196,0.9304,0.9289,0.9303,0.9322,0.9429,0.9431,0.9433,0.9417,0.9419,0.9421,0,0,0,0,0,0,0.8864,0.8931,0.8942,0.8997,0.9038,0.9096,0.9121,0.9135,0.9178,0.9177,0.9215,0.9228,0.9277,0.9305,0.9288,0.937,0.9367,0.9372,0.935,0.9352,0.9353,0.9345,0.9301,0,0,0,0,0,0.8866,0.8907,0.8963,0.9006,0.9026,0.9069,0.9095,0.9116,0.916,0.9178,0.9215,0.9257,0.93,0.9327,0.937,0.9422,0.9435,0.9442,0.9443,0.9444,0.9448,0.9476,0.948,0.9441,0.9441,0.9441,0,0,0.8869,0.891,0.8934,0.9002,0.9036,0.9077,0.9084,0.9127,0.9157,0.9184,0.9236,0.9265,0.9314,0.9366,0.9391,0.9391,0.9461,0.9447,0.9447,0.9451,0.9479,0.9482,0.9486,0.9442,0.9442,0.9442,0,0,0.8895,0.8931,0.8971,0.9005,0.9056,0.9085,0.9094,0.915,0.917,0.9223,0.9243,0.9279,0.9353,0.9387,0.9413,0.9451,0.9464,0.9464,0.947,0.9498,0.9501,0.9504,0.9516,0.952,0.9467,0.9467,0.9467,0,0.8892,0.8955,0.8989,0.9031,0.906,0.9086,0.9125,0.9157,0.9219,0.9238,0.9237,0.9329,0.9364,0.9424,0.9433,0.9454,0.9465,0.9457,0.9498,0.9501,0.9504,0.9516,0.9521,0.9467,0.9467,0.9467,0.9467,0,0.8949,0.8992,0.9018,0.9077,0.9109,0.915,0.9189,0.9217,0.9235,0.9263,0.9315,0.9358,0.9409,0.9425,0.9443,0.9487,0.9485,0.949,0.9488,0.9507,0.9519,0.9524,0.9466,0.9466,0.9467,0.9467,0,0,0.8964,0.9041,0.905,0.9077,0.9135,0.9169,0.921,0.926,0.9283,0.9325,0.936,0.9421,0.9425,0.9456,0.9478,0.9501,0.9527,0.9504,0.9505,0.9506,0.9577,0.9572,0.9577,0.9536,0.9537,0.9538,0.9573,0,0.8997,0.9073,0.9103,0.9164,0.9204,0.9228,0.9264,0.9303,0.933,0.9367,0.9397,0.9439,0.9443,0.9461,0.9486,0.9519,0.9542,0.9517,0.9568,0.957,0.9555,0.9584,0.958,0.961,0.9578,0.9579,0.9579,0,0.9046,0.9089,0.9153,0.9206,0.9223,0.9255,0.9303,0.9338,0.9382,0.94,0.9433,0.9454,0.9497,0.9491,0.9551,0.9533,0.9556,0.9575,0.9577,0.9582,0.9575,0.959,0.9621,0.9625,0.9587,0.9587,0.9586,0,0.905,0.9123,0.9171,0.9193,0.9256,0.9277,0.9304,0.9348,0.9375,0.9417,0.9435,0.9481,0.9505,0.954,0.9572,0.9565,0.9627,0.9625,0.9643,0.9642,0.9655,0.9654,0.9689,0.967,0.967,0.967,0.967,0,0.9084,0.9122,0.9173,0.9202,0.9246,0.928,0.9322,0.935,0.9389,0.9423,0.9447,0.9479,0.9519,0.9555,0.958,0.9625,0.9636,0.9652,0.9658,0.9649,0.9647,0.9665,0.9663,0.9671,0.9671,0.9671,0.9671,0,0.9095,0.9131,0.9185,0.9239,0.9254,0.9283,0.933,0.9358,0.9386,0.943,0.9442,0.9486,0.953,0.9565,0.9623,0.9639,0.9686,0.9693,0.9671,0.9674,0.969,0.9688,0.9738,0.9746,0.9721,0.9722,0.9722,0,0.9114,0.9144,0.9202,0.9227,0.9254,0.9294,0.9322,0.9357,0.9385,0.9437,0.9459,0.9505,0.9544,0.9613,0.9649,0.9693,0.9701,0.9716,0.9708,0.9698,0.9701,0.9698,0.9701,0.9717,0.9717,0.9717,0.9717,0,0.9144,0.916,0.92,0.9246,0.9279,0.9317,0.9355,0.9374,0.9415,0.9446,0.9491,0.9521,0.958,0.9625,0.9672,0.9699,0.9714,0.9719,0.9725,0.9717,0.9703,0.971,0.9673,0.9718,0.9717,0.9717,0.9717,0.9717,0.9159,0.9187,0.9231,0.9275,0.9307,0.9342,0.9372,0.9403,0.9442,0.9493,0.9511,0.9557,0.9599,0.9665,0.9692,0.9728,0.9729,0.9739,0.9741,0.9743,0.9741,0.9697,0.9737,0.9737,0.9737,0.9737,0.9737,0,0.9189,0.9219,0.9259,0.9312,0.9346,0.9358,0.94,0.9427,0.9468,0.9507,0.9544,0.9595,0.9639,0.9678,0.9723,0.9745,0.9753,0.9755,0.9754,0.9759,0.9738,0.9728,0.9748,0.9748,0.9748,0.9748,0.9748,0.9748,0.9209,0.9256,0.9277,0.934,0.9369,0.9415,0.9438,0.947,0.9501,0.9557,0.9594,0.9619,0.9658,0.9705,0.9745,0.9756,0.9771,0.9771,0.9784,0.9763,0.9761,0.976,0.975,0.9775,0.9775,0.9802,0.9802,0.9802]},{"header":{"parameterUnit":"m.s-1","parameterCategory":1,"la1":30.2991,"la2":30.254,"lo1":-89.0895,"lo2":-89.0444,"dy":0.0017,"dx":0.0017,"nx":28,"ny":28,"refTime":"2023-07-26T03:00:00:Z","depth":0,"parameterNumber":3,"parameterNumberName":"V-component_of_WINDS"},"data":[0,0,0,0,0,0,0,0,0,0,0,0,0,0,0,0,0,0,0,0,0,0,0,0,0,0,0,0,0,0,0,0,0,0,0,0,0,0,0,0,0,0,0,0,0,0,0,0,0,0,0,0,0,0,0,0,0,0,2.4274,2.4273,0,2.4207,2.4206,2.4206,2.4175,2.4175,2.4176,2.4176,2.4103,2.4101,2.4099,0,0,0,0,0,0,0,0,0,0,0,0,0,2.4369,2.4368,2.4274,2.4273,2.4272,2.4207,2.4206,2.4206,2.4175,2.4175,2.4176,2.4176,2.4103,2.4101,2.4098,0,0,0,0,0,0,0,0,0,0,0,0,0,2.4318,2.4367,2.4274,2.4249,2.4246,2.4208,2.4206,2.4205,2.4175,2.4175,2.4176,2.4176,2.4104,2.4101,2.4098,2.4077,0,0,2.4089,2.4087,0,0,0,0,0,0,0,0,2.4321,2.4314,2.4254,2.4251,2.4248,2.42,2.4213,2.4162,2.4175,2.4202,2.4176,2.4176,2.4134,2.4129,2.4116,2.4074,2.407,2.4089,2.4087,2.4085,2.4085,0,0,0,0,0,0,0,2.4324,2.4317,2.4247,2.4253,2.4249,2.424,2.4233,2.4203,2.4168,2.42,2.4198,2.419,2.4133,2.4119,2.4114,2.4069,2.4089,2.4086,2.4084,2.4083,2.4005,2.4005,0,0,0,0,0,0,2.4332,2.432,2.4249,2.4245,2.4285,2.4238,2.423,2.4215,2.4169,2.4162,2.419,2.4189,2.4124,2.4118,2.4111,2.4083,2.4085,2.4083,2.4081,2.4006,2.4005,2.4005,0,0,0,0,0,0,2.4335,2.4326,2.4252,2.4282,2.4272,2.4236,2.422,2.4214,2.42,2.4161,2.4154,2.4183,2.4124,2.4116,2.4086,2.408,2.4081,2.4078,2.4006,2.4005,2.4005,2.4028,0,0,0,0,0,0,2.4338,2.4327,2.432,2.4282,2.427,2.4229,2.4219,2.4212,2.4195,2.4193,2.4153,2.4146,2.4123,2.4091,2.4083,2.4076,2.4076,2.4006,2.4006,2.4005,2.4027,2.4028,2.4029,0,0,0,0,0,2.4341,2.4328,2.432,2.4312,2.4261,2.4229,2.4222,2.4198,2.4195,2.4187,2.4162,2.4147,2.4082,2.4088,2.4079,2.4071,2.4006,2.4006,2.4005,2.4027,2.4028,2.4029,0,0,0,0,0,0,2.4365,2.4323,2.4313,2.4288,2.4263,2.4224,2.4213,2.42,2.4173,2.4172,2.4141,2.4132,2.4105,2.4085,2.4092,2.4048,2.4043,2.4041,2.4062,2.4063,2.4064,2.4069,2.4074,0,0,0,0,0,2.4368,2.4347,2.4311,2.4292,2.428,2.4249,2.4234,2.4217,2.4189,2.4177,2.415,2.4122,2.4095,2.4078,2.4051,2.4024,2.4014,2.4014,2.4015,2.4016,2.4014,2.3998,2.3997,2.4003,2.4003,2.4003,0,0,2.4372,2.4347,2.4335,2.4296,2.4274,2.4252,2.424,2.4217,2.4199,2.4173,2.4144,2.4123,2.4089,2.4061,2.4047,2.4043,2.401,2.4015,2.4016,2.4014,2.3997,2.3996,2.3996,2.4003,2.4003,2.4003,0,0,2.437,2.4349,2.4331,2.431,2.4278,2.4257,2.4253,2.4216,2.4202,2.4172,2.4152,2.413,2.4085,2.4061,2.4043,2.4032,2.4017,2.4024,2.4028,2.4012,2.4012,2.4011,2.4006,2.4005,2.4022,2.4022,2.4022,0,2.4379,2.4347,2.4323,2.4301,2.4284,2.4261,2.4242,2.4222,2.4182,2.4169,2.4166,2.4109,2.4084,2.405,2.4047,2.4033,2.4026,2.4028,2.4014,2.4013,2.4012,2.4007,2.4006,2.4023,2.4023,2.4023,2.4023,0,2.436,2.4337,2.4326,2.429,2.4272,2.4251,2.4222,2.4206,2.4191,2.417,2.414,2.411,2.4076,2.4067,2.4051,2.403,2.4029,2.402,2.4014,2.4013,2.4008,2.4006,2.4024,2.4024,2.4024,2.4024,0,0,2.437,2.4322,2.4318,2.4301,2.4264,2.4245,2.4223,2.4192,2.4178,2.4151,2.4131,2.4093,2.4085,2.4065,2.4046,2.4032,2.4025,2.4025,2.4024,2.4026,2.3998,2.4005,2.4003,2.4015,2.4014,2.4014,2.4001,0,2.4362,2.4324,2.4301,2.4271,2.4249,2.4227,2.4208,2.4182,2.4162,2.4139,2.4116,2.409,2.4081,2.4069,2.4054,2.4029,2.4018,2.4029,2.3994,2.3993,2.4003,2.4001,2.4008,2.3997,2.3999,2.3999,2.3998,0,2.4348,2.4323,2.4292,2.4257,2.4247,2.423,2.4199,2.4178,2.4148,2.4134,2.4112,2.4093,2.4067,2.4064,2.4027,2.4035,2.4019,2.4004,2.4003,2.3999,2.3996,2.3996,2.3993,2.3991,2.3995,2.3995,2.3995,0,2.4359,2.4317,2.4293,2.4279,2.4238,2.4226,2.4208,2.4178,2.4161,2.4133,2.4122,2.4091,2.4074,2.405,2.4023,2.4023,2.3988,2.3983,2.3975,2.3976,2.3969,2.3969,2.3963,2.3959,2.3959,2.3959,2.3959,0,2.4352,2.4333,2.4297,2.4282,2.426,2.4234,2.4212,2.4192,2.4165,2.4144,2.4123,2.4103,2.4069,2.4045,2.4024,2.3996,2.3989,2.3976,2.397,2.3978,2.3979,2.3967,2.3966,2.3959,2.3959,2.3959,2.3959,0,2.436,2.4335,2.4307,2.4271,2.4261,2.4246,2.4214,2.4198,2.4177,2.4151,2.4143,2.4109,2.408,2.4051,2.4011,2.3997,2.3969,2.3962,2.398,2.3977,2.3971,2.3972,2.3956,2.3952,2.3951,2.3951,2.3951,0,2.4357,2.4343,2.4305,2.4291,2.4274,2.4251,2.4233,2.4206,2.4188,2.4153,2.414,2.411,2.4084,2.4038,2.4008,2.3977,2.3969,2.3966,2.3964,2.3972,2.3968,2.397,2.3968,2.3966,2.3967,2.3967,2.3967,0,2.4355,2.4344,2.432,2.4293,2.4273,2.4249,2.4225,2.4214,2.4181,2.4162,2.4133,2.4113,2.4073,2.4043,2.4008,2.3987,2.3971,2.3968,2.3964,2.3971,2.3982,2.3976,2.3982,2.3968,2.3968,2.3968,2.3968,2.3968,2.4357,2.4343,2.4315,2.4289,2.4269,2.4246,2.4229,2.4206,2.4182,2.4149,2.4133,2.4104,2.4072,2.4025,2.4005,2.398,2.3976,2.3971,2.3969,2.3968,2.397,2.3987,2.3973,2.3973,2.3973,2.3973,2.3973,0,2.4354,2.4335,2.4312,2.4279,2.4258,2.4247,2.4219,2.4202,2.4177,2.415,2.4125,2.4091,2.4061,2.403,2.3998,2.3984,2.3976,2.3977,2.3977,2.3972,2.3976,2.3982,2.3984,2.3984,2.3984,2.3984,2.3984,2.3984,2.435,2.4325,2.431,2.4275,2.4255,2.4227,2.4212,2.4191,2.4169,2.4133,2.4109,2.4089,2.406,2.4025,2.3997,2.3988,2.3977,2.398,2.3969,2.3973,2.3972,2.3972,2.3977,2.3978,2.3978,2.3968,2.3968,2.3968]}]]